Location: Waltman Observatory
(32.5145°N, 90.4450°W)
Time: 20:37:02
(UTC-05:00)

Amateur Radio Satellites - All Passes

Search period start: 05 May 2016 20:07
Search period end: 06 May 2016 20:07
Location: Waltman Observatory, 32.5145°N, 90.4450°W

Satellite Date Start Highest point End Downlink Frequencies (MHz)
Time Altitude Azimuth
JUGNU 05 May 20:12:42 20:16:55 20° 189° (S) 20:21:08 437.505
AIST 2 05 May 20:17:28 20:21:28 50° 300° (WNW) 20:25:31 435.215
PRISM 05 May 20:27:59 20:30:51 18° 96° (E) 20:33:44 437.425
CUTE 1.7 + AOD 2 05 May 20:31:34 20:35:45 87° 82° (E) 20:39:59 437.475
M-CUBED/EXP-1 PRIME 05 May 20:32:33 20:34:43 13° 262° (W) 20:36:53 437.505
Oscar 11 05 May 20:33:00 20:34:54 13° 68° (ENE) 20:36:48 145.826/435.025
DOVE 4 05 May 20:38:00 20:42:10 25° 265° (W) 20:46:30 437.250
FUNcube-1 05 May 20:48:18 20:51:10 17° 69° (ENE) 20:54:00 145.935
COMPASS 1 05 May 20:50:13 20:54:19 72° 77° (ENE) 20:58:27 437.405
SEEDS 05 May 20:52:55 20:57:03 71° 258° (WSW) 21:01:14 437.485
CINEMA 3 05 May 20:56:38 21:01:28 49° 261° (W) 21:06:20 145.822/145.860
RS-15 05 May 21:01:23 21:12:20 66° 112° (ESE) 21:23:53 29.354- 29.394
UWE-3 05 May 21:07:28 21:11:54 46° 74° (ENE) 21:16:16 435.000/436.395/437.385
Cosmos 2504 05 May 21:10:58 21:17:58 49° 280° (W) 21:24:52 435.465 / 435.565
AAUSAT CUBESAT 2 05 May 21:17:49 21:21:53 63° 259° (W) 21:25:58 437.432
SRMSAT 05 May 21:17:52 21:22:33 24° 183° (S) 21:27:14 437.500
CUBEBUG 2 05 May 21:21:38 21:26:23 81° 258° (WSW) 21:31:04 437.445
ZACube-1 05 May 21:30:36 21:35:03 57° 76° (ENE) 21:39:24 437.345
STRAND 1 05 May 21:30:53 21:34:12 18° 293° (WNW) 21:37:31 437.568
HO-68 05 May 21:31:56 21:38:05 31° 262° (W) 21:44:17 435.675
CANX-2 05 May 21:37:43 21:39:37 13° 267° (W) 21:41:31 2200.000
AO-85 05 May 21:38:44 21:43:23 80° 63° (ENE) 21:47:33 145.980
PRISM 05 May 22:02:34 22:06:07 28° 289° (WNW) 22:09:42 437.425
JUGNU 05 May 22:03:37 22:05:16 11° 197° (SSW) 22:06:56 437.505
DELFI C3 05 May 22:04:07 22:08:02 77° 78° (ENE) 22:11:59 145.870
HUMSAT D 05 May 22:05:38 22:09:22 31° 73° (ENE) 22:13:04 437.325/437.525
Oscar 11 05 May 22:06:30 22:10:36 43° 261° (W) 22:14:43 145.826/435.025
FUNcube-1 05 May 22:22:58 22:27:06 35° 262° (W) 22:31:12 145.935
ANTELSAT 05 May 22:36:22 22:39:37 21° 96° (E) 22:42:50 437.575/2403.000
UWE-3 05 May 22:46:21 22:48:30 13° 267° (W) 22:50:38 435.000/436.395/437.385
CUBEBUG 1 05 May 23:01:15 23:04:06 17° 69° (ENE) 23:06:58 437.445
ESTCUBE 1 05 May 23:05:19 23:09:08 28° 71° (ENE) 23:12:58 437.505/2401.250
SRMSAT 05 May 23:07:21 23:11:07 17° 193° (SSW) 23:14:54 437.500
RS-15 05 May 23:15:34 23:25:31 34° 314° (NW) 23:36:00 29.354- 29.394
DX 1 05 May 23:21:48 23:25:27 27° 71° (ENE) 23:29:08 434.975-435.025
UKube-1 05 May 23:22:18 23:25:37 22° 70° (ENE) 23:28:57 .
DUCHIFAT 1 05 May 23:24:23 23:25:17 11° 93° (E) 23:26:11 145.980
QB50P2 05 May 23:28:09 23:30:36 15° 94° (E) 23:33:01 145.880/145.840
UNISAT 6 05 May 23:29:58 23:34:15 80° 283° (WNW) 23:38:30 437.425
POLYITAN 1 05 May 23:30:19 23:32:49 15° 94° (E) 23:35:16 437.675
POPSAT HIP 1 05 May 23:31:56 23:34:29 15° 94° (E) 23:36:59 437.405
GONETS M04 05 May 23:34:11 23:41:31 30° 85° (E) 23:48:49
QB50P1 05 May 23:34:36 23:37:23 17° 95° (E) 23:40:10 145.935-145.965
VELOX 1 05 May 23:36:08 23:40:21 45° 74° (ENE) 23:44:37 145.980
HUMSAT D 05 May 23:42:24 23:45:00 16° 265° (W) 23:47:35 437.325/437.525
SPROUT 05 May 23:45:58 23:49:06 20° 70° (ENE) 23:52:14 437.525
TIGRISAT 05 May 23:46:24 23:50:34 52° 285° (WNW) 23:54:41 435.000
PCSat 05 May 23:46:45 23:50:40 20° 54° (NE) 23:54:34 145.827
BUGSAT 1 05 May 23:52:39 23:52:51 10° 92° (E) 23:53:03 437.445
NANOSAT C BR1 06 May 00:06:27 00:10:26 41° 99° (E) 00:14:22 145.865
AISAT 06 May 00:08:31 00:12:55 67° 258° (WSW) 00:17:23 437.250
AIST 1 06 May 00:08:44 00:12:56 57° 94° (E) 00:17:12
50 SAT 06 May 00:10:33 00:14:04 47° 260° (W) 00:17:36 437.505
ANTELSAT 06 May 00:12:47 00:16:15 24° 289° (WNW) 00:19:41 437.575/2403.000
O/OREOS (USA 219) 06 May 00:31:46 00:36:13 59° 70° (ENE) 00:40:37 437.305
CUBEBUG 1 06 May 00:36:08 00:40:05 33° 262° (W) 00:44:04 437.445
ESTCUBE 1 06 May 00:42:36 00:45:54 20° 265° (W) 00:49:13 437.505/2401.250
DUCHIFAT 1 06 May 00:57:09 01:01:11 45° 286° (WNW) 01:05:10 145.980
UKube-1 06 May 00:57:58 01:01:30 25° 263° (W) 01:05:03 .
DX 1 06 May 00:58:21 01:01:35 20° 264° (W) 01:04:50 434.975-435.025
QB50P2 06 May 01:02:39 01:06:27 33° 287° (WNW) 01:10:14 145.880/145.840
POLYITAN 1 06 May 01:04:53 01:08:39 32° 288° (WNW) 01:12:24 437.675
Cosmos 2499 06 May 01:06:27 01:13:28 67° 93° (E) 01:20:29 435.465 / 435.565
POPSAT HIP 1 06 May 01:06:31 01:10:18 32° 287° (WNW) 01:14:02 437.405
QB50P1 06 May 01:09:30 01:13:10 29° 288° (WNW) 01:16:48 145.935-145.965
VELOX 1 06 May 01:15:14 01:17:01 12° 267° (W) 01:18:47 145.980
Oscar 19 06 May 01:18:25 01:21:17 15° 93° (E) 01:24:08 437.125/150
DANDE 06 May 01:19:22 01:23:56 17° 72° (ENE) 01:28:50 436.750
SPROUT 06 May 01:21:10 01:24:50 27° 263° (W) 01:28:32 437.525
BUGSAT 1 06 May 01:24:27 01:28:27 46° 286° (WNW) 01:32:22 437.445
JAS-2 06 May 01:27:46 01:35:16 46° 98° (E) 01:42:28 435.910
PCSat 06 May 01:29:05 01:34:17 48° 250° (WSW) 01:39:27 145.827
GONETS M04 06 May 01:29:24 01:37:51 49° 281° (W) 01:46:20
RS-15 06 May 01:40:11 01:43:31 11° 347° (NNW) 01:46:53 29.354- 29.394
ITUPSAT 1 06 May 01:41:18 01:44:49 21° 69° (ENE) 01:48:20 437.325
TISAT 1 06 May 01:41:28 01:45:38 58° 259° (W) 01:49:50 437.305
NANOSAT C BR1 06 May 01:43:52 01:45:45 13° 293° (WNW) 01:47:39 145.865
CUSAT 1 06 May 01:45:51 01:53:25 54° 79° (E) 02:01:13 437.405
SWISSCUBE 06 May 01:48:13 01:52:14 28° 70° (ENE) 01:56:16 437.505
BEESAT 06 May 02:20:14 02:24:54 58° 74° (ENE) 02:29:34 436.000
BEESAT 3 06 May 02:28:08 02:31:12 21° 55° (NE) 02:34:14 437.485
BEESAT 2 06 May 02:42:33 02:45:19 18° 53° (NE) 02:48:04 435.950
ITAMSAT 1 06 May 02:44:23 02:47:34 16° 94° (E) 02:50:43 435.822/435.867
Oscar 19 06 May 02:55:48 03:00:49 51° 287° (WNW) 03:05:48 437.125/150
DANDE 06 May 02:59:47 03:07:09 85° 263° (W) 03:15:34 436.750
Cosmos 2499 06 May 03:03:03 03:07:08 16° 290° (WNW) 03:11:13 435.465 / 435.565
AO-7 06 May 03:08:04 03:11:21 13° 92° (E) 03:14:37 29.400- 29.500
JAS-2 06 May 03:13:05 03:19:53 34° 293° (WNW) 03:26:32 435.910
ITUPSAT 1 06 May 03:18:11 03:22:24 32° 262° (W) 03:26:39 437.325
Gurwin Techsat 1B 06 May 03:18:38 03:23:58 80° 284° (WNW) 03:29:16 435.225
SWISSCUBE 06 May 03:26:12 03:29:57 23° 264° (W) 03:33:43 437.505
KKS-1 06 May 03:27:43 03:31:46 35° 72° (ENE) 03:35:50 437.445
CUSAT 1 06 May 03:28:45 03:35:08 28° 272° (W) 03:41:40 437.405
STARS 06 May 03:35:25 03:38:43 21° 70° (ENE) 03:42:03 437.465
MOZHAYETS 4 06 May 03:56:41 04:01:02 46° 74° (ENE) 04:05:23
RS-15 06 May 03:57:30 04:04:09 16° 26° (NNE) 04:10:50 29.354- 29.394
BEESAT 06 May 04:01:49 04:02:58 11° 267° (W) 04:04:05 436.000
BEESAT 3 06 May 04:05:37 04:08:48 24° 249° (WSW) 04:11:58 437.485
BEESAT 2 06 May 04:19:42 04:23:11 30° 248° (WSW) 04:26:39 435.950
ITAMSAT 1 06 May 04:22:14 04:27:11 47° 288° (WNW) 04:32:09 435.822/435.867
AIST 2 06 May 04:43:25 04:46:50 25° 55° (NE) 04:50:15 435.215
DANDE 06 May 04:45:51 04:49:19 14° 275° (W) 04:52:58 436.750
HORYU 2 06 May 04:51:11 04:54:17 19° 96° (E) 04:57:24 437.375
AO-7 06 May 04:56:34 05:04:57 85° 106° (ESE) 05:13:20 29.400- 29.500
KKS-1 06 May 05:05:31 05:08:23 17° 265° (W) 05:11:15 437.445
STARS 06 May 05:11:06 05:14:53 27° 263° (W) 05:18:41 437.465
ISS 06 May 05:13:46 05:16:45 34° 131° (SE) 05:19:45 145.825
MOZHAYETS 4 06 May 05:36:21 05:38:22 13° 267° (W) 05:40:24
CUBESAT XI-V 06 May 05:51:31 05:56:05 88° 83° (E) 06:00:44 437.345
YUBILEINY 06 May 05:59:48 06:08:26 63° 81° (E) 06:17:03 435.215
RS-15 06 May 06:08:35 06:20:32 52° 55° (NE) 06:32:21 29.354- 29.394
CUTE-I 06 May 06:18:32 06:22:10 18° 95° (E) 06:25:47 437.470
AIST 2 06 May 06:21:56 06:25:11 22° 249° (WSW) 06:28:25 435.215
SO-50 06 May 06:25:28 06:30:22 82° 297° (WNW) 06:35:18 436.795
HORYU 2 06 May 06:26:59 06:30:50 30° 289° (WNW) 06:34:39 437.375
BRITE-PL 06 May 06:34:01 06:38:57 30° 95° (E) 06:43:41 437.365/2234.400
Cosmos 2491 06 May 06:38:18 06:47:02 70° 93° (E) 06:55:49 435.465 / 435.565
NOAA 15 06 May 06:47:22 06:52:37 58° 101° (E) 06:57:50 137.62
ISS 06 May 06:50:56 06:53:17 18° 325° (NW) 06:55:37 145.825
AO-7 06 May 06:51:29 06:56:41 18° 303° (WNW) 07:01:53 29.400- 29.500
NOAA 18 06 May 07:01:35 07:07:02 68° 102° (ESE) 07:12:27 137.9125
STRAND 1 06 May 07:01:59 07:06:42 40° 72° (ENE) 07:11:25 437.568
Cubesat XI-IV 06 May 07:02:52 07:08:04 53° 101° (E) 07:13:15 437.490
DOVE 4 06 May 07:06:33 07:07:56 11° 90° (E) 07:09:18 437.250
Cosmos 2504 06 May 07:07:11 07:14:34 44° 79° (E) 07:22:26 435.465 / 435.565
GOMX 1 06 May 07:26:25 07:31:33 47° 98° (E) 07:36:22 467.674
LilacSat-2 06 May 07:39:24 07:43:03 46° 285° (WNW) 07:46:39 437.200
CUTE-I 06 May 07:57:19 08:02:19 43° 288° (WNW) 08:07:20 437.470
YUBILEINY 06 May 07:58:14 08:04:25 22° 277° (W) 08:10:37 435.215
PHONESAT 2.4 06 May 08:09:21 08:12:28 76° 151° (SSE) 08:15:36 2401.200-2431.200
BRITE-PL 06 May 08:12:24 08:17:15 30° 290° (WNW) 08:21:57 437.365/2234.400
M-CUBED/EXP-1 PRIME 06 May 08:14:38 08:18:20 81° 108° (ESE) 08:21:46 437.505
RS-15 06 May 08:21:31 08:32:44 43° 253° (WSW) 08:43:50 29.354- 29.394
CUTE 1.7 + AOD 2 06 May 08:21:47 08:24:58 21° 96° (E) 08:28:09 437.475
NOAA 15 06 May 08:29:00 08:31:50 15° 295° (WNW) 08:34:39 137.62
AUBIESAT-1 06 May 08:29:53 08:33:34 78° 288° (WNW) 08:36:58 437.475
Cosmos 2491 06 May 08:38:20 08:44:32 21° 290° (WNW) 08:50:46 435.465 / 435.565
COMPASS 1 06 May 08:38:49 08:41:25 16° 94° (E) 08:44:00 437.405
DOVE 4 06 May 08:41:08 08:46:02 58° 285° (WNW) 08:50:37 437.250
SEEDS 06 May 08:41:47 08:45:18 25° 97° (E) 08:48:47 437.485
STRAND 1 06 May 08:42:28 08:45:57 19° 265° (W) 08:49:27 437.568
Cubesat XI-IV 06 May 08:44:31 08:47:38 16° 295° (WNW) 08:50:46 437.490
NOAA 18 06 May 08:44:38 08:47:02 13° 297° (WNW) 08:49:27 137.9125
PRISM 06 May 08:46:43 08:50:46 74° 257° (WSW) 08:54:52 437.425
CINEMA 3 06 May 08:56:28 09:00:53 58° 100° (E) 09:05:06 145.822/145.860
Cosmos 2504 06 May 09:01:01 09:07:38 31° 273° (W) 09:14:38 435.465 / 435.565
HO-68 06 May 09:03:20 09:10:27 67° 103° (ESE) 09:17:33 435.675
UWE-3 06 May 09:04:03 09:05:35 12° 93° (E) 09:07:06 435.000/436.395/437.385
AAUSAT CUBESAT 2 06 May 09:04:59 09:08:32 27° 97° (E) 09:12:03 437.432
GOMX 1 06 May 09:05:42 09:09:07 18° 294° (WNW) 09:12:25 467.674
CUBEBUG 2 06 May 09:17:57 09:21:35 28° 97° (E) 09:25:09 437.445
CANX-2 06 May 09:24:40 09:28:47 52° 284° (WNW) 09:32:53 2200.000
ZACube-1 06 May 09:25:16 09:27:29 14° 94° (E) 09:29:41 437.345
ANTELSAT 06 May 09:32:08 09:34:06 13° 67° (ENE) 09:36:03 437.575/2403.000
PHONESAT 2.4 06 May 09:46:51 09:49:31 25° 347° (NNW) 09:52:11 2401.200-2431.200
DELFI C3 06 May 09:47:53 09:49:59 14° 94° (E) 09:52:05 145.870
CUTE 1.7 + AOD 2 06 May 09:57:17 10:00:43 25° 288° (WNW) 10:04:10 437.475
Oscar 11 06 May 09:58:03 10:02:12 45° 99° (E) 10:06:19 145.826/435.025
COMPASS 1 06 May 10:13:19 10:16:59 30° 287° (WNW) 10:20:39 437.405
FUNcube-1 06 May 10:15:20 10:19:26 59° 100° (E) 10:23:29 145.935
SEEDS 06 May 10:17:45 10:20:48 20° 289° (WNW) 10:23:52 437.485
UNISAT 6 06 May 10:23:45 10:28:14 50° 75° (ENE) 10:32:39 437.425
UWE-3 06 May 10:38:18 10:42:13 40° 286° (WNW) 10:46:04 435.000/436.395/437.385
TIGRISAT 06 May 10:39:42 10:44:21 74° 77° (ENE) 10:48:55 435.000
AAUSAT CUBESAT 2 06 May 10:40:54 10:43:48 19° 290° (WNW) 10:46:42 437.432
HO-68 06 May 10:52:38 10:57:28 20° 298° (WNW) 11:02:20 435.675
NANOSAT C BR1 06 May 10:55:01 10:57:52 18° 69° (ENE) 11:00:45 145.865
CUBEBUG 2 06 May 10:55:07 10:57:58 18° 291° (WNW) 11:00:48 437.445
ZACube-1 06 May 11:00:06 11:03:51 33° 287° (WNW) 11:07:33 437.345
Cosmos 2499 06 May 11:03:11 11:08:21 18° 72° (ENE) 11:13:41 435.465 / 435.565
ANTELSAT 06 May 11:05:49 11:10:20 51° 260° (W) 11:14:48 437.575/2403.000
DELFI C3 06 May 11:21:20 11:24:54 32° 287° (WNW) 11:28:29 145.870
PHONESAT 2.4 06 May 11:24:39 11:26:59 19° 4° (N) 11:29:18 2401.200-2431.200
HUMSAT D 06 May 11:28:32 11:32:35 70° 284° (WNW) 11:36:38 437.325/437.525
VELOX 1 06 May 11:32:44 11:34:40 13° 93° (E) 11:36:35 145.980
Oscar 11 06 May 11:36:08 11:37:52 12° 293° (WNW) 11:39:38 145.826/435.025
JAS-2 06 May 11:41:03 11:41:20 10° 56° (ENE) 11:41:36 435.910
DUCHIFAT 1 06 May 11:43:55 11:48:08 67° 76° (ENE) 11:52:22 145.980
GONETS M04 06 May 11:45:01 11:53:44 69° 82° (E) 12:02:21
50 SAT 06 May 11:45:23 11:48:02 19° 96° (E) 11:50:40 437.505
AO-85 06 May 11:46:55 11:52:20 81° 116° (ESE) 11:57:49 145.980
QB50P2 06 May 11:49:54 11:54:11 85° 255° (WSW) 11:58:30 145.880/145.840
POLYITAN 1 06 May 11:52:06 11:56:24 84° 258° (WSW) 12:00:43 437.675
POPSAT HIP 1 06 May 11:53:37 11:57:54 83° 259° (W) 12:02:12 437.405
QB50P1 06 May 11:56:28 12:00:43 75° 257° (WSW) 12:05:01 145.935-145.965
AIST 1 06 May 11:57:46 12:02:05 55° 267° (W) 12:06:22
UNISAT 6 06 May 12:03:20 12:05:07 12° 267° (W) 12:06:53 437.425
AISAT 06 May 12:03:36 12:07:36 32° 98° (E) 12:11:35 437.250
BUGSAT 1 06 May 12:08:59 12:13:09 61° 76° (ENE) 12:17:21 437.445
CUBEBUG 1 06 May 12:28:46 12:33:10 63° 101° (E) 12:37:31 437.445
NANOSAT C BR1 06 May 12:29:35 12:33:21 30° 263° (W) 12:37:07 145.865
Oscar 19 06 May 12:31:22 12:34:06 15° 65° (ENE) 12:36:51 437.125/150
ESTCUBE 1 06 May 12:38:12 12:42:43 68° 284° (WNW) 12:47:13 437.505/2401.250
UKube-1 06 May 12:48:39 12:53:00 76° 103° (ESE) 12:57:18 .
DX 1 06 May 12:49:42 12:54:06 83° 282° (WNW) 12:58:28 434.975-435.025
Cosmos 2499 06 May 12:54:00 13:01:59 76° 266° (W) 13:10:33 435.465 / 435.565
Gurwin Techsat 1B 06 May 13:00:12 13:01:07 10° 63° (ENE) 13:02:02 435.225
PHONESAT 2.4 06 May 13:01:19 13:04:18 39° 20° (NNE) 13:07:18 2401.200-2431.200
O/OREOS (USA 219) 06 May 13:03:00 13:04:46 12° 98° (E) 13:06:33 437.305
VELOX 1 06 May 13:07:03 13:11:18 44° 286° (WNW) 13:15:31 145.980
SPROUT 06 May 13:10:59 13:15:16 71° 101° (ESE) 13:19:29 437.525
50 SAT 06 May 13:18:59 13:21:41 20° 289° (WNW) 13:24:23 437.505
JAS-2 06 May 13:19:01 13:24:56 78° 76° (ENE) 13:31:44 435.910
ISS 06 May 13:21:05 13:24:19 57° 43° (NE) 13:27:31 145.825
TISAT 1 06 May 13:30:18 13:33:59 29° 98° (E) 13:37:38 437.305
AO-85 06 May 13:30:32 13:33:26 14° 312° (NW) 13:36:20 145.980
AISAT 06 May 13:40:46 13:43:48 18° 291° (WNW) 13:46:50 437.250
GONETS M04 06 May 13:43:52 13:49:36 20° 278° (W) 13:55:19
ITAMSAT 1 06 May 13:58:22 14:01:32 17° 66° (ENE) 14:04:42 435.822/435.867
AO-7 06 May 14:03:16 14:06:59 14° 54° (NE) 14:10:41 29.400- 29.500
Oscar 19 06 May 14:07:50 14:12:53 56° 259° (W) 14:18:00 437.125/150
PCSat 06 May 14:22:51 14:27:55 42° 110° (ESE) 14:33:01 145.827
BEESAT 06 May 14:25:41 14:29:19 21° 96° (E) 14:32:56 436.000
Gurwin Techsat 1B 06 May 14:35:01 14:40:19 80° 257° (WSW) 14:45:40 435.225
PHONESAT 2.4 06 May 14:38:17 14:41:06 30° 214° (SW) 14:43:54 2401.200-2431.200
O/OREOS (USA 219) 06 May 14:39:14 14:43:40 48° 292° (WNW) 14:48:07 437.305
CUSAT 1 06 May 14:46:03 14:49:22 48° 92° (E) 14:53:43 437.405
SO-50 06 May 15:02:05 15:06:01 26° 54° (NE) 15:09:50 436.795
TISAT 1 06 May 15:06:35 15:09:23 18° 291° (WNW) 15:12:11 437.305
JAS-2 06 May 15:08:39 15:10:52 12° 273° (W) 15:13:11 435.910
ITUPSAT 1 06 May 15:22:32 15:27:20 87° 280° (W) 15:32:07 437.325
SWISSCUBE 06 May 15:29:45 15:34:28 63° 285° (WNW) 15:39:10 437.505
ITAMSAT 1 06 May 15:35:35 15:40:34 48° 260° (W) 15:45:33 435.822/435.867
HORYU 2 06 May 15:47:07 15:48:04 11° 66° (ENE) 15:49:03 437.375
AO-7 06 May 15:50:08 15:58:23 77° 71° (ENE) 16:06:41 29.400- 29.500
MOZHAYETS 4 06 May 15:57:28 16:00:12 16° 94° (E) 16:02:55
BEESAT 06 May 16:02:55 16:07:04 30° 289° (WNW) 16:11:12 436.000
PCSat 06 May 16:07:17 16:11:27 22° 305° (NW) 16:15:37 145.827
DANDE 06 May 16:07:25 16:10:06 32° 284° (WNW) 16:13:22 436.750
BEESAT 3 06 May 16:17:31 16:17:54 10° 107° (ESE) 16:18:17 437.485
JUGNU 06 May 16:21:02 16:25:00 19° 170° (S) 16:29:00 437.505
SO-50 06 May 16:42:31 16:46:24 27° 249° (WSW) 16:50:10 436.795
Cosmos 2491 06 May 16:55:28 17:02:39 27° 73° (ENE) 17:09:45 435.465 / 435.565
KKS-1 06 May 16:59:11 17:03:35 59° 285° (WNW) 17:07:57 437.445
STARS 06 May 17:04:17 17:08:41 76° 102° (ESE) 17:13:03 437.465
YUBILEINY 06 May 17:04:59 17:07:48 12° 78° (ENE) 17:10:37 435.215
HORYU 2 06 May 17:19:42 17:24:05 58° 259° (W) 17:28:30 437.375
SRMSAT 06 May 17:29:31 17:32:28 14° 164° (SSE) 17:35:26 437.500
MOZHAYETS 4 06 May 17:33:13 17:37:27 38° 287° (WNW) 17:41:41
CUTE-I 06 May 17:36:08 17:39:56 20° 67° (ENE) 17:43:44 437.470
BRITE-PL 06 May 17:40:45 17:44:16 20° 67° (ENE) 17:47:58 437.365/2234.400
AO-7 06 May 17:46:37 17:51:45 18° 266° (W) 17:56:55 29.400- 29.500
BEESAT 3 06 May 17:51:21 17:55:07 46° 301° (WNW) 17:58:56 437.485
CUBESAT XI-V 06 May 17:52:55 17:57:07 31° 97° (E) 18:01:17 437.345
NOAA 15 06 May 18:02:49 18:07:58 59° 74° (ENE) 18:13:10 137.62
BEESAT 2 06 May 18:06:50 18:10:43 56° 300° (WNW) 18:14:40 435.950
JUGNU 06 May 18:08:51 18:13:24 23° 180° (S) 18:18:00 437.505
LilacSat-2 06 May 18:16:36 18:20:14 39° 75° (ENE) 18:23:52 437.200
Cubesat XI-IV 06 May 18:20:17 18:25:29 56° 73° (ENE) 18:30:40 437.490
NOAA 18 06 May 18:23:15 18:28:46 83° 75° (ENE) 18:34:17 137.9125
GOMX 1 06 May 18:29:28 18:33:53 31° 70° (ENE) 18:38:32 467.674
AIST 2 06 May 18:37:46 18:40:09 15° 109° (ESE) 18:42:32 435.215
Cosmos 2491 06 May 18:51:19 18:59:47 54° 270° (W) 19:08:11 435.465 / 435.565
YUBILEINY 06 May 18:54:26 19:03:10 84° 94° (E) 19:11:55 435.215
M-CUBED/EXP-1 PRIME 06 May 18:55:31 19:00:05 51° 70° (ENE) 19:04:35 437.505
AUBIESAT-1 06 May 19:10:20 19:14:55 61° 71° (ENE) 19:19:25 437.475
CUTE-I 06 May 19:14:39 19:19:38 41° 261° (W) 19:24:38 437.470
SRMSAT 06 May 19:16:29 19:21:00 22° 174° (S) 19:25:33 437.500
STRAND 1 06 May 19:17:48 19:21:29 20° 95° (E) 19:25:09 437.568
BRITE-PL 06 May 19:17:52 19:22:21 38° 263° (W) 19:27:12 437.365/2234.400
HO-68 06 May 19:27:33 19:33:38 31° 66° (ENE) 19:39:43 435.675
CUBESAT XI-V 06 May 19:30:46 19:34:14 21° 291° (WNW) 19:37:43 437.345
SEEDS 06 May 19:32:06 19:32:36 10° 67° (ENE) 19:33:05 437.485
DOVE 4 06 May 19:40:36 19:45:42 83° 77° (ENE) 19:51:01 437.250
Cosmos 2504 06 May 19:41:04 19:47:41 39° 89° (E) 19:54:09 435.465 / 435.565
NOAA 15 06 May 19:45:40 19:48:02 13° 267° (W) 19:50:25 137.62
CINEMA 3 06 May 19:52:48 19:57:17 34° 72° (ENE) 20:01:46 145.822/145.860
AAUSAT CUBESAT 2 06 May 19:54:00 19:54:20 10° 67° (ENE) 19:54:41 437.432
LilacSat-2 06 May 19:54:03 19:54:40 10° 267° (W) 19:55:17 437.200
JUGNU 06 May 19:57:45 20:01:49 19° 190° (S) 20:05:54 437.505
